Hamilton, OH

9:00 PM EST on November 18, 2017 (GMT -0500)
Butler County Regional

Weather History for KHAO - September, 2013

Change the Weather History Date:

Tuesday, September 17, 2013

  Actual Average (KLUK) Record (KLUK)
Temperature  
Mean Temperature 60 °F -  
Max Temperature 77 °F 77 °F 91 °F (1970)
Min Temperature 45 °F 56 °F 40 °F (1959)
Degree Days  
Heating Degree Days 5    
Growing Degree Days 10 (Base 50)    
Moisture  
Dew Point 50 °F    
Average Humidity 70    
Maximum Humidity 93    
Minimum Humidity 41    
Precipitation  
Precipitation 0.01 in - - ()
Sea Level Pressure  
Sea Level Pressure 30.28 in    
Wind  
Wind Speed 3 mph (East)    
Max Wind Speed 9 mph    
Max Gust Speed -    
Visibility 10 miles    
Events      
Averages and records for this station are not official NWS values.
T = Trace of Precipitation, MM = Missing Value Source: NWS Daily Summary

Daily Weather History Graph

Daily Weather History Graph

Search for Another Location

Airport or City:

Trip Planner

Search our weather history database for the weather conditions in past years. The results will help you decide how hot, cold, wet, or windy it might be!

Date:

Astronomy

Sep. 17, 2013 Rise Set
Actual Time 7:21 AM EDT 7:42 PM EDT
Civil Twilight 6:54 AM EDT 8:09 PM EDT
Nautical Twilight 6:22 AM EDT 8:41 PM EDT
Astronomical Twilight 5:50 AM EDT 9:13 PM EDT
Moon 6:29 PM EDT (9/17) 5:15 AM EDT (9/17)
Length of Visible Light 13h 15m
Length of Day
12h 21m
Waxing Gibbous, 96% of the Moon is Illuminated
Sep 17
Waxing Gibbous
Sep 19
Full
Sep 26
Last Quarter
Oct 4
New
Oct 11
First Quarter

Hourly Weather History & Observations

Time (EDT) Temp. Dew Point Humidity Pressure Visibility Wind Dir Wind Speed Gust Speed Precip Events Conditions
12:53 AM 57.0 °F 50.0 °F 77% 30.32 in 10.0 mi East 3.5 mph - N/A   Clear
1:53 AM 54.0 °F 48.9 °F 83% 30.33 in 10.0 mi East 3.5 mph - N/A   Clear
2:53 AM 51.1 °F 48.0 °F 89% 30.33 in 10.0 mi Calm Calm - N/A   Clear
3:53 AM 53.1 °F 48.9 °F 86% 30.33 in 10.0 mi NE 3.5 mph - N/A   Clear
4:53 AM 48.0 °F 46.0 °F 93% 30.33 in 10.0 mi Calm Calm - N/A   Clear
5:53 AM 46.9 °F 45.0 °F 93% 30.33 in 9.0 mi Calm Calm - N/A   Clear
6:53 AM 45.0 °F 43.0 °F 93% 30.33 in 10.0 mi Calm Calm - N/A   Clear
7:53 AM 46.9 °F 45.0 °F 93% 30.34 in 9.0 mi Calm Calm - N/A   Clear
8:53 AM 55.0 °F 50.0 °F 83% 30.35 in 10.0 mi ENE 4.6 mph - N/A   Clear
9:53 AM 60.1 °F 51.1 °F 72% 30.35 in 10.0 mi East 4.6 mph - N/A   Clear
10:53 AM 66.0 °F 52.0 °F 60% 30.35 in 10.0 mi East 6.9 mph - N/A   Clear
11:53 AM 69.1 °F 53.1 °F 57% 30.33 in 10.0 mi Variable 5.8 mph - N/A   Clear
12:53 PM 72.0 °F 52.0 °F 49% 30.31 in 10.0 mi East 6.9 mph - 0.01 in   Clear
1:53 PM 75.0 °F 51.1 °F 43% 30.28 in 10.0 mi Variable 3.5 mph - N/A   Clear
2:53 PM 73.9 °F 50.0 °F 43% 30.25 in 10.0 mi ENE 8.1 mph - N/A   Clear
3:53 PM 75.0 °F 50.0 °F 41% 30.22 in 10.0 mi East 5.8 mph - N/A   Clear
4:53 PM 75.0 °F 51.1 °F 43% 30.21 in 10.0 mi Variable 3.5 mph - N/A   Clear
5:53 PM 75.9 °F 51.1 °F 42% 30.20 in 10.0 mi Variable 5.8 mph - N/A   Clear
6:53 PM 73.9 °F 51.1 °F 45% 30.19 in 10.0 mi East 9.2 mph - N/A   Clear
7:53 PM 64.9 °F 53.1 °F 65% 30.19 in 10.0 mi East 4.6 mph - N/A   Clear
8:53 PM 61.0 °F 54.0 °F 78% 30.19 in 10.0 mi East 4.6 mph - N/A   Clear
9:53 PM 60.1 °F 53.1 °F 78% 30.19 in 10.0 mi ESE 3.5 mph - N/A   Clear
10:53 PM 59.0 °F 53.1 °F 81% 30.19 in 10.0 mi Calm Calm - N/A   Clear
11:53 PM 55.9 °F 52.0 °F 87% 30.19 in 10.0 mi Calm Calm - N/A   Clear